Time,TemperatureF,DewpointF,PressureIn,WindDirection,WindDirectionDegrees,WindSpeedMPH,WindSpeedGustMPH,Humidity,HourlyPrecipIn,Conditions,Clouds,dailyrainin,SoftwareType,DateUTC
2013-09-28 00:13:00,60.0,58.0,30.09,ENE,76,0.0,0.0,92,0.00,,,0.00,,2013-09-28 05:13:00,
2013-09-28 00:22:00,60.0,58.0,30.09,ENE,76,0.0,0.0,92,0.00,,,0.00,,2013-09-28 05:22:00,
2013-09-28 00:53:00,59.0,57.0,30.09,ENE,76,0.0,0.0,92,0.00,,,0.00,,2013-09-28 05:53:00,
2013-09-28 01:13:00,59.0,57.0,30.09,ENE,76,0.0,0.0,93,0.00,,,0.00,,2013-09-28 06:13:00,
2013-09-28 01:22:00,60.0,58.0,30.09,ENE,76,0.0,0.0,92,0.00,,,0.00,,2013-09-28 06:22:00,
2013-09-28 01:42:00,60.0,58.0,30.10,ENE,76,0.0,0.0,93,0.00,,,0.00,,2013-09-28 06:42:00,
2013-09-28 01:52:00,60.0,58.0,30.10,ENE,76,0.0,0.0,92,0.00,,,0.00,,2013-09-28 06:52:00,
2013-09-28 02:12:00,60.0,58.0,30.09,ENE,76,0.0,0.0,93,0.00,,,0.00,,2013-09-28 07:12:00,
2013-09-28 02:22:00,59.0,57.0,30.09,ENE,76,0.0,0.0,93,0.00,,,0.00,,2013-09-28 07:22:00,
2013-09-28 02:42:00,59.0,57.0,30.09,ENE,76,0.0,1.0,92,0.00,,,0.00,,2013-09-28 07:42:00,
2013-09-28 02:52:00,59.0,57.0,30.09,NW,309,0.0,1.0,92,0.00,,,0.00,,2013-09-28 07:52:00,
2013-09-28 03:13:00,59.0,57.0,30.09,NW,309,0.0,1.0,92,0.00,,,0.00,,2013-09-28 08:13:00,
2013-09-28 03:21:00,59.0,57.0,30.09,NW,309,0.0,0.0,93,0.00,,,0.00,,2013-09-28 08:21:00,
2013-09-28 03:43:00,59.0,57.0,30.09,NW,309,0.0,2.0,92,0.00,,,0.00,,2013-09-28 08:43:00,
2013-09-28 03:53:00,59.0,57.0,30.09,NW,309,0.0,1.0,92,0.00,,,0.00,,2013-09-28 08:53:00,
2013-09-28 04:11:00,60.0,57.0,30.09,SE,142,0.0,1.0,90,0.00,,,0.00,,2013-09-28 09:11:00,
2013-09-28 04:22:00,59.0,56.0,30.10,SE,142,0.0,1.0,90,0.00,,,0.00,,2013-09-28 09:22:00,
2013-09-28 04:54:00,59.0,56.0,30.10,SE,136,0.0,1.0,91,0.00,,,0.00,,2013-09-28 09:54:00,
2013-09-28 05:13:00,60.0,57.0,30.10,ENE,78,0.0,1.0,91,0.00,,,0.00,,2013-09-28 10:13:00,
2013-09-28 05:22:00,60.0,57.0,30.10,ENE,78,0.0,0.0,91,0.00,,,0.00,,2013-09-28 10:22:00,
2013-09-28 05:43:00,59.0,57.0,30.11,ENE,78,0.0,1.0,92,0.00,,,0.00,,2013-09-28 10:43:00,
2013-09-28 05:52:00,59.0,57.0,30.10,ENE,68,0.0,3.0,92,0.00,,,0.00,,2013-09-28 10:52:00,
2013-09-28 06:12:00,59.0,57.0,30.11,ENE,68,0.0,0.0,92,0.00,,,0.00,,2013-09-28 11:12:00,
2013-09-28 06:22:00,59.0,57.0,30.12,ENE,68,0.0,1.0,93,0.00,,,0.00,,2013-09-28 11:22:00,
2013-09-28 06:43:00,59.0,57.0,30.13,ENE,68,0.0,0.0,93,0.00,,,0.00,,2013-09-28 11:43:00,
2013-09-28 06:52:00,59.0,57.0,30.13,ENE,68,0.0,0.0,93,0.01,,,0.01,,2013-09-28 11:52:00,
2013-09-28 07:12:00,59.0,57.0,30.13,ENE,68,0.0,2.0,94,0.01,,,0.01,,2013-09-28 12:12:00,
2013-09-28 07:22:00,59.0,57.0,30.14,ENE,68,0.0,1.0,93,0.01,,,0.01,,2013-09-28 12:22:00,
2013-09-28 07:42:00,59.0,57.0,30.14,ENE,68,0.0,1.0,93,0.01,,,0.01,,2013-09-28 12:42:00,
2013-09-28 07:52:00,60.0,58.0,30.15,ENE,67,0.0,1.0,93,0.00,,,0.01,,2013-09-28 12:52:00,
2013-09-28 08:12:00,61.0,59.0,30.15,ENE,67,0.0,1.0,93,0.00,,,0.01,,2013-09-28 13:12:00,
2013-09-28 08:22:00,62.0,59.0,30.15,ENE,67,0.0,1.0,91,0.00,,,0.01,,2013-09-28 13:22:00,
2013-09-28 08:52:00,64.0,61.0,30.15,East,80,0.0,2.0,89,0.00,,,0.01,,2013-09-28 13:52:00,
2013-09-28 09:12:00,66.0,62.0,30.15,SSW,194,0.0,2.0,87,0.00,,,0.01,,2013-09-28 14:12:00,
2013-09-28 09:21:00,67.0,62.0,30.16,SSW,196,0.0,3.0,85,0.00,,,0.01,,2013-09-28 14:21:00,
2013-09-28 09:42:00,68.0,63.0,30.16,SSW,198,1.0,3.0,85,0.00,,,0.01,,2013-09-28 14:42:00,
2013-09-28 09:52:00,70.0,64.0,30.17,SSW,200,3.0,8.0,81,0.00,,,0.01,,2013-09-28 14:52:00,
2013-09-28 10:12:00,71.0,63.0,30.16,SSE,160,2.0,7.0,77,0.00,,,0.01,,2013-09-28 15:12:00,
2013-09-28 10:23:00,72.0,63.0,30.16,SSW,201,3.0,7.0,73,0.00,,,0.01,,2013-09-28 15:23:00,
2013-09-28 10:44:00,73.0,63.0,30.17,SSW,194,2.0,7.0,71,0.00,,,0.01,,2013-09-28 15:44:00,
2013-09-28 10:54:00,74.0,63.0,30.17,SSW,203,2.0,8.0,69,0.00,,,0.01,,2013-09-28 15:54:00,
2013-09-28 11:14:00,75.0,63.0,30.17,North,355,1.0,9.0,66,0.00,,,0.01,,2013-09-28 16:14:00,
2013-09-28 11:24:00,77.0,63.0,30.16,SSW,208,4.0,11.0,62,0.00,,,0.01,,2013-09-28 16:24:00,
2013-09-28 11:43:00,77.0,63.0,30.16,SSW,210,5.0,11.0,61,0.00,,,0.01,,2013-09-28 16:43:00,
2013-09-28 11:54:00,77.0,63.0,30.16,SSW,194,5.0,13.0,61,0.00,,,0.01,,2013-09-28 16:54:00,
2013-09-28 12:13:00,77.0,62.0,30.16,SSW,197,5.0,11.0,60,0.00,,,0.01,,2013-09-28 17:13:00,
2013-09-28 12:23:00,78.0,62.0,30.15,SSW,200,5.0,8.0,59,0.00,,,0.01,,2013-09-28 17:23:00,
2013-09-28 12:43:00,79.0,62.0,30.16,South,190,2.0,11.0,57,0.00,,,0.01,,2013-09-28 17:43:00,
2013-09-28 12:52:00,79.0,63.0,30.15,SE,137,1.0,10.0,59,0.00,,,0.01,,2013-09-28 17:52:00,
2013-09-28 13:12:00,80.0,62.0,30.14,SW,236,1.0,6.0,54,0.00,,,0.01,,2013-09-28 18:12:00,
2013-09-28 13:22:00,80.0,62.0,30.14,SSW,206,0.0,8.0,54,0.00,,,0.01,,2013-09-28 18:22:00,
2013-09-28 13:42:00,79.0,61.0,30.14,SSW,212,3.0,9.0,54,0.00,,,0.01,,2013-09-28 18:42:00,
2013-09-28 13:52:00,80.0,61.0,30.12,WSW,248,5.0,11.0,53,0.00,,,0.01,,2013-09-28 18:52:00,
2013-09-28 14:11:00,80.0,61.0,30.12,South,173,2.0,8.0,53,0.00,,,0.01,,2013-09-28 19:11:00,
2013-09-28 14:22:00,81.0,62.0,30.11,SSW,211,2.0,10.0,52,0.00,,,0.01,,2013-09-28 19:22:00,
2013-09-28 14:42:00,81.0,61.0,30.11,South,190,4.0,12.0,51,0.00,,,0.01,,2013-09-28 19:42:00,
2013-09-28 14:52:00,81.0,62.0,30.11,East,86,3.0,9.0,53,0.00,,,0.01,,2013-09-28 19:52:00,
2013-09-28 15:12:00,79.0,60.0,30.10,South,182,2.0,9.0,53,0.00,,,0.01,,2013-09-28 20:12:00,
2013-09-28 15:22:00,80.0,60.0,30.09,WSW,244,3.0,9.0,51,0.00,,,0.01,,2013-09-28 20:22:00,
2013-09-28 15:43:00,80.0,61.0,30.09,SW,218,5.0,8.0,52,0.00,,,0.01,,2013-09-28 20:43:00,
2013-09-28 15:52:00,79.0,60.0,30.08,South,169,5.0,12.0,53,0.00,,,0.01,,2013-09-28 20:52:00,
2013-09-28 16:12:00,79.0,60.0,30.08,South,177,2.0,8.0,53,0.00,,,0.01,,2013-09-28 21:12:00,
2013-09-28 16:23:00,79.0,60.0,30.08,SSW,202,5.0,9.0,52,0.00,,,0.01,,2013-09-28 21:23:00,
2013-09-28 16:44:00,79.0,60.0,30.07,SSW,203,3.0,9.0,53,0.00,,,0.01,,2013-09-28 21:44:00,
2013-09-28 16:55:00,78.0,60.0,30.07,SSW,201,3.0,8.0,54,0.00,,,0.01,,2013-09-28 21:55:00,
2013-09-28 17:13:00,78.0,59.0,30.07,SSW,213,5.0,8.0,52,0.00,,,0.01,,2013-09-28 22:13:00,
2013-09-28 17:23:00,78.0,60.0,30.07,SSW,205,1.0,10.0,54,0.00,,,0.01,,2013-09-28 22:23:00,
2013-09-28 17:43:00,77.0,58.0,30.07,South,175,3.0,9.0,52,0.00,,,0.01,,2013-09-28 22:43:00,
2013-09-28 17:54:00,77.0,59.0,30.07,SSE,165,3.0,8.0,53,0.00,,,0.01,,2013-09-28 22:54:00,
2013-09-28 18:12:00,76.0,58.0,30.07,South,177,3.0,6.0,54,0.00,,,0.01,,2013-09-28 23:12:00,
2013-09-28 18:22:00,76.0,60.0,30.07,SSE,159,0.0,5.0,57,0.00,,,0.01,,2013-09-28 23:22:00,
2013-09-28 18:43:00,75.0,59.0,30.07,SSE,162,0.0,2.0,58,0.00,,,0.01,,2013-09-28 23:43:00,
2013-09-28 18:52:00,74.0,60.0,30.07,South,172,0.0,2.0,61,0.00,,,0.01,,2013-09-28 23:52:00,
2013-09-28 19:11:00,73.0,61.0,30.07,South,171,0.0,1.0,65,0.00,,,0.01,,2013-09-29 00:11:00,
2013-09-28 19:22:00,71.0,60.0,30.07,SE,146,0.0,2.0,68,0.00,,,0.01,,2013-09-29 00:22:00,
2013-09-28 19:43:00,70.0,59.0,30.07,SSE,157,0.0,0.0,69,0.00,,,0.01,,2013-09-29 00:43:00,
2013-09-28 19:52:00,69.0,60.0,30.08,SSE,157,0.0,0.0,73,0.00,,,0.01,,2013-09-29 00:52:00,
2013-09-28 20:12:00,67.0,59.0,30.08,SSE,156,0.0,1.0,75,0.00,,,0.01,,2013-09-29 01:12:00,
2013-09-28 20:22:00,66.0,59.0,30.07,East,98,0.0,1.0,77,0.00,,,0.01,,2013-09-29 01:22:00,
2013-09-28 20:43:00,65.0,58.0,30.08,East,98,0.0,0.0,79,0.00,,,0.01,,2013-09-29 01:43:00,
2013-09-28 20:52:00,64.0,58.0,30.08,East,98,0.0,0.0,82,0.00,,,0.01,,2013-09-29 01:52:00,
2013-09-28 21:12:00,64.0,59.0,30.08,East,98,0.0,0.0,84,0.00,,,0.01,,2013-09-29 02:12:00,
2013-09-28 21:22:00,63.0,58.0,30.08,East,98,0.0,1.0,84,0.00,,,0.01,,2013-09-29 02:22:00,
2013-09-28 21:43:00,63.0,58.0,30.08,East,98,0.0,1.0,85,0.00,,,0.01,,2013-09-29 02:43:00,
2013-09-28 21:53:00,62.0,58.0,30.08,East,98,0.0,0.0,86,0.00,,,0.01,,2013-09-29 02:53:00,
2013-09-28 22:12:00,62.0,58.0,30.08,East,98,0.0,0.0,86,0.00,,,0.01,,2013-09-29 03:12:00,
2013-09-28 22:23:00,62.0,58.0,30.08,East,98,0.0,0.0,86,0.00,,,0.01,,2013-09-29 03:23:00,
2013-09-28 22:55:00,61.0,57.0,30.08,East,98,0.0,0.0,87,0.00,,,0.01,,2013-09-29 03:55:00,
2013-09-28 23:02:00,-999.0,-99.9,30.08,East,98,0.0,0.0,-999,-99.99,,,-99.99,,2013-09-29 04:02:00,
2013-09-28 23:14:00,61.0,57.0,30.08,East,98,0.0,0.0,88,0.00,,,0.01,,2013-09-29 04:14:00,
2013-09-28 23:24:00,61.0,57.0,30.08,East,98,0.0,0.0,88,0.00,,,0.01,,2013-09-29 04:24:00,
2013-09-28 23:54:00,60.0,57.0,30.08,East,98,0.0,0.0,89,0.00,,,0.01,,2013-09-29 04:54:00,